Regional Weather Roundup
Issued by NWS

Home | Current Version | Previous Version | Text Only | Print | Product List | Glossary Off
Versions: 1 2 3 4 5 6 7 8 9 10 11 12 13 14 15 16 17 18 19 20 21 22 23 24 25 26 27 28 29 30 31 32 33 34 35 36 37 38 39 40 41 42 43 44 45 46 47 48 49 50

000
ASUS43 KOAX 140202
RWRNE

WEATHER ROUNDUP FOR NEBRASKA
NATIONAL WEATHER SERVICE OMAHA NE
800 PM CST WED DEC 13 2017

NOTES: SATELLITE DATA IS BEING USED TO AUGMENT CLOUD COVER ABOVE
       12000 FEET.
       "FAIR" INDICATES FEW OR NO CLOUDS BELOW 12,000 FEET WITH NO
       SIGNIFICANT WEATHER AND/OR OBSTRUCTIONS TO VISIBILITY.


NEZ001>004-019>022-054>056-140300-
NEBRASKA PANHANDLE

CITY           SKY/WX    TMP DP  RH WIND       PRES   REMARKS
SCOTTSBLUFF    MOCLDY    40  18  41 NW12      30.08R WCI  33
ALLIANCE       CLOUDY    37  20  50 N13       30.05R WCI  29
CHADRON        CLOUDY    34  22  61 CALM      30.08R
GORDON         FAIR      37  24  61 N14G20    30.05R WCI  28
KIMBALL        CLOUDY    39  14  35 N17G23    30.04S WCI  30
SIDNEY         PTCLDY    39  15  37 N16       30.05R WCI  30
$$

NEZ057>060-069>072-079>082-140300-
SOUTHWEST NEBRASKA

CITY           SKY/WX    TMP DP  RH WIND       PRES   REMARKS
NORTH PLATTE   PTCLDY    38  22  52 N9        30.01R WCI  31
IMPERIAL       CLOUDY    28  15  58 N8        30.03R WCI  20
LEXINGTON      CLOUDY    34  22  61 NW7       29.99R WCI  28
MCCOOK         CLOUDY    32  18  56 NW12      30.02R WCI  23
OGALLALA       CLOUDY    37  21  52 N5        30.04R WCI  34
$$

NEZ005>010-023>029-035>040-094-140300-
NORTH CENTRAL NEBRASKA

CITY           SKY/WX    TMP DP  RH WIND       PRES   REMARKS
VALENTINE      CLOUDY    40  21  46 NW15      30.01R WCI  32
AINSWORTH      PTCLDY    38  23  56 N10       29.98S WCI  31
BROKEN BOW     CLOUDY    40  23  50 NW14      29.97R WCI  32
O`NEILL        CLOUDY    35  28  75 N15       29.98R WCI  25
ORD            PTCLDY    37  25  61 NW12      29.95R WCI  29
THEDFORD       CLOUDY    39  24  54 NW14      30.01R WCI  31
$$

NEZ041-046>049-061>064-073>077-083>087-140300-
SOUTH CENTRAL NEBRASKA

CITY           SKY/WX    TMP DP  RH WIND       PRES   REMARKS
GRAND ISLAND   CLOUDY    32  24  72 W7        29.96R WCI  26
AURORA         CLEAR     33  23  68 NW10      29.95R WCI  24
HASTINGS       CLEAR     31  22  69 NW7       29.96R WCI  24
HEBRON         CLEAR     36  26  65 W3        29.96R
HOLDREGE       CLEAR     29  20  70 W5        29.98S WCI  24
KEARNEY        CLEAR     35  23  61 NW7       29.98R WCI  29
YORK           CLOUDY    36  27  69 CALM      29.96R
$$

NEZ011>018-030>034-042>045-140300-
NORTHEAST NEBRASKA

CITY           SKY/WX    TMP DP  RH WIND       PRES   REMARKS
NORFOLK        CLOUDY    37  26  64 N18G26    29.93R WCI  27
ALBION         PTCLDY    37  28  69 N8        29.96R WCI  31
BLAIR          CLOUDY    40  26  58 N20G30    29.91S WCI  31
COLUMBUS       CLOUDY    37  26  64 N9        29.96R WCI  30
FREMONT        CLOUDY    39  26  59 N13G23    29.94R WCI  32
TEKAMAH        CLOUDY    40  25  55 NW21G30   29.93R WCI  30
WAYNE          CLOUDY    38  25  60 N20G29    29.94R WCI  27
$$

NEZ050>053-065>068-078-088>093-140300-
SOUTHEAST NEBRASKA

CITY           SKY/WX    TMP DP  RH WIND       PRES   REMARKS
LINCOLN        PTCLDY    39  27  62 N8        29.96R WCI  33
OMAHA EPPLEY   CLOUDY    41  24  51 NW23G35   29.91S
BEATRICE       CLEAR     35  28  74 N5        29.96R WCI  31
FALLS CITY     CLEAR     36  27  69 NW7       29.93R WCI  30
NEBRASKA CITY  MOCLDY    39  29  66 N14       29.93R WCI  31
PLATTSMOUTH    CLOUDY    41  27  59 N17G30    29.92R
$$

NEZ044-045-051>053-067-140300-
OMAHA AREA

CITY           SKY/WX    TMP DP  RH WIND       PRES   REMARKS
OMAHA EPPLEY   CLOUDY    41  24  51 NW23G35   29.91S
BLAIR          CLOUDY    40  26  58 N20G30    29.91S WCI  31
FREMONT        CLOUDY    39  26  59 N13G23    29.94R WCI  32
MILLARD        CLOUDY    42  27  55 N12G22    29.93R
OFFUTT AFB     CLOUDY    41  24  50 NW18G30   29.92R
PLATTSMOUTH    CLOUDY    41  27  59 N17G30    29.92R
WAHOO          CLOUDY    40  27  60 N16G23    29.94R WCI  31
$$



USA.gov is the U.S. government's official web portal to all federal, state and local government web resources and services.